Time,TemperatureF,DewpointF,PressureIn,WindDirection,WindDirectionDegrees,WindSpeedMPH,WindSpeedGustMPH,Humidity,HourlyPrecipIn,Conditions,Clouds,dailyrainin,SoftwareType,DateUTC
2013-09-07 00:01:00,62.8,36.2,29.38,SE,131,0.0,2.2,37,0.00,,,0.00,VWS V13.01,2013-09-07 04:01:00,
2013-09-07 00:02:00,62.8,36.2,29.38,SE,131,0.0,2.2,37,0.00,,,0.00,VWS V13.01,2013-09-07 04:02:00,
2013-09-07 00:07:00,62.6,36.7,29.38,ESE,113,2.2,2.7,38,0.00,,,0.00,VWS V13.01,2013-09-07 04:07:00,
2013-09-07 00:12:00,62.4,37.2,29.38,South,171,2.2,2.7,39,0.00,,,0.00,VWS V13.01,2013-09-07 04:12:00,
2013-09-07 00:17:00,62.4,37.2,29.38,South,171,0.0,0.0,39,0.00,,,0.00,VWS V13.01,2013-09-07 04:17:00,
2013-09-07 00:22:00,62.2,37.0,29.38,South,171,0.0,0.0,39,0.00,,,0.00,VWS V13.01,2013-09-07 04:22:00,
2013-09-07 00:27:00,62.2,37.0,29.38,East,101,2.7,2.7,39,0.00,,,0.00,VWS V13.01,2013-09-07 04:27:00,
2013-09-07 00:32:00,61.9,37.3,29.38,East,101,0.0,2.2,40,0.00,,,0.00,VWS V13.01,2013-09-07 04:32:00,
2013-09-07 00:37:00,61.9,38.0,29.38,SE,143,0.0,2.2,41,0.00,,,0.00,VWS V13.01,2013-09-07 04:37:00,
2013-09-07 00:42:00,61.9,38.0,29.38,SE,143,0.0,0.0,41,0.00,,,0.00,VWS V13.01,2013-09-07 04:42:00,
2013-09-07 00:47:00,61.7,37.8,29.38,SE,143,0.0,0.0,41,0.00,,,0.00,VWS V13.01,2013-09-07 04:47:00,
2013-09-07 00:52:00,61.7,37.8,29.38,SE,143,0.0,0.0,41,0.00,,,0.00,VWS V13.01,2013-09-07 04:52:00,
2013-09-07 00:57:00,61.5,37.6,29.38,SE,143,2.2,2.2,41,0.00,,,0.00,VWS V13.01,2013-09-07 04:57:00,
2013-09-07 01:02:00,61.3,38.1,29.38,SE,143,0.0,0.0,42,0.00,,,0.00,VWS V13.01,2013-09-07 05:02:00,
2013-09-07 01:07:00,61.3,38.1,29.38,SE,131,2.2,3.1,42,0.00,,,0.00,VWS V13.01,2013-09-07 05:07:00,
2013-09-07 01:12:00,61.3,39.3,29.38,SE,136,2.2,3.6,44,0.00,,,0.00,VWS V13.01,2013-09-07 05:12:00,
2013-09-07 01:17:00,61.3,39.3,29.38,SE,136,0.0,0.0,44,0.00,,,0.00,VWS V13.01,2013-09-07 05:17:00,
2013-09-07 01:22:00,61.2,39.1,29.38,SE,136,0.0,0.0,44,0.00,,,0.00,VWS V13.01,2013-09-07 05:22:00,
2013-09-07 01:27:00,61.0,38.9,29.38,SE,136,0.0,0.0,44,0.00,,,0.00,VWS V13.01,2013-09-07 05:27:00,
2013-09-07 01:32:00,61.0,38.9,29.38,SE,136,0.0,0.0,44,0.00,,,0.00,VWS V13.01,2013-09-07 05:32:00,
2013-09-07 01:37:00,61.0,39.5,29.38,SE,136,0.0,0.0,45,0.00,,,0.00,VWS V13.01,2013-09-07 05:37:00,
2013-09-07 01:42:00,61.2,39.7,29.38,SE,136,0.0,2.2,45,0.00,,,0.00,VWS V13.01,2013-09-07 05:42:00,
2013-09-07 01:47:00,61.2,39.7,29.38,SE,136,0.0,0.0,45,0.00,,,0.00,VWS V13.01,2013-09-07 05:47:00,
2013-09-07 01:52:00,61.2,39.7,29.38,SE,136,0.0,0.0,45,0.00,,,0.00,VWS V13.01,2013-09-07 05:52:00,
2013-09-07 01:57:00,61.0,39.5,29.38,SE,136,0.0,0.0,45,0.00,,,0.00,VWS V13.01,2013-09-07 05:57:00,
2013-09-07 02:02:00,61.0,39.5,29.38,SE,136,0.0,0.0,45,0.00,,,0.00,VWS V13.01,2013-09-07 06:02:00,
2013-09-07 02:07:00,60.8,39.3,29.38,SE,136,2.2,2.2,45,0.00,,,0.00,VWS V13.01,2013-09-07 06:07:00,
2013-09-07 02:12:00,60.8,39.3,29.38,SE,136,0.0,3.1,45,0.00,,,0.00,VWS V13.01,2013-09-07 06:12:00,
2013-09-07 02:17:00,60.6,39.2,29.38,SE,136,0.0,2.2,45,0.00,,,0.00,VWS V13.01,2013-09-07 06:17:00,
2013-09-07 02:22:00,60.6,39.2,29.38,SE,136,0.0,2.2,45,0.00,,,0.00,VWS V13.01,2013-09-07 06:22:00,
2013-09-07 02:27:00,60.6,39.2,29.35,SE,136,0.0,0.0,45,0.00,,,0.00,VWS V13.01,2013-09-07 06:27:00,
2013-09-07 02:32:00,60.6,39.2,29.35,SE,136,0.0,0.0,45,0.00,,,0.00,VWS V13.01,2013-09-07 06:32:00,
2013-09-07 02:37:00,60.4,39.0,29.35,SE,136,0.0,0.0,45,0.00,,,0.00,VWS V13.01,2013-09-07 06:37:00,
2013-09-07 02:42:00,60.4,39.0,29.35,SE,136,0.0,0.0,45,0.00,,,0.00,VWS V13.01,2013-09-07 06:42:00,
2013-09-07 02:47:00,60.4,39.0,29.35,SE,136,0.0,0.0,45,0.00,,,0.00,VWS V13.01,2013-09-07 06:47:00,
2013-09-07 02:52:00,60.3,38.8,29.35,SE,136,0.0,0.0,45,0.00,,,0.00,VWS V13.01,2013-09-07 06:52:00,
2013-09-07 02:57:00,60.3,38.8,29.35,SE,136,0.0,0.0,45,0.00,,,0.00,VWS V13.01,2013-09-07 06:57:00,
2013-09-07 03:02:00,60.1,38.7,29.35,SE,136,0.0,0.0,45,0.00,,,0.00,VWS V13.01,2013-09-07 07:02:00,
2013-09-07 03:07:00,59.9,38.5,29.35,SE,136,0.0,0.0,45,0.00,,,0.00,VWS V13.01,2013-09-07 07:07:00,
2013-09-07 03:12:00,59.7,38.4,29.35,SE,136,0.0,0.0,45,0.00,,,0.00,VWS V13.01,2013-09-07 07:12:00,
2013-09-07 03:17:00,59.5,38.2,29.35,SE,136,0.0,0.0,45,0.00,,,0.00,VWS V13.01,2013-09-07 07:17:00,
2013-09-07 03:22:00,59.5,38.2,29.35,SE,136,0.0,0.0,45,0.00,,,0.00,VWS V13.01,2013-09-07 07:22:00,
2013-09-07 03:27:00,59.4,38.0,29.35,SE,136,0.0,0.0,45,0.00,,,0.00,VWS V13.01,2013-09-07 07:27:00,
2013-09-07 03:32:00,59.2,37.9,29.35,SE,136,0.0,0.0,45,0.00,,,0.00,VWS V13.01,2013-09-07 07:32:00,
2013-09-07 03:37:00,59.2,37.9,29.35,SE,136,0.0,0.0,45,0.00,,,0.00,VWS V13.01,2013-09-07 07:37:00,
2013-09-07 03:42:00,59.2,37.9,29.35,SE,136,0.0,0.0,45,0.00,,,0.00,VWS V13.01,2013-09-07 07:42:00,
2013-09-07 03:47:00,59.0,38.3,29.35,SE,136,0.0,0.0,46,0.00,,,0.00,VWS V13.01,2013-09-07 07:47:00,
2013-09-07 03:52:00,59.0,38.3,29.35,SE,136,0.0,0.0,46,0.00,,,0.00,VWS V13.01,2013-09-07 07:52:00,
2013-09-07 03:57:00,58.8,38.1,29.35,SE,136,0.0,0.0,46,0.00,,,0.00,VWS V13.01,2013-09-07 07:57:00,
2013-09-07 04:02:00,58.8,38.1,29.35,SE,136,0.0,0.0,46,0.00,,,0.00,VWS V13.01,2013-09-07 08:02:00,
2013-09-07 04:07:00,58.8,38.7,29.35,SE,136,0.0,0.0,47,0.00,,,0.00,VWS V13.01,2013-09-07 08:07:00,
2013-09-07 04:12:00,58.8,38.7,29.35,SE,136,0.0,0.0,47,0.00,,,0.00,VWS V13.01,2013-09-07 08:12:00,
2013-09-07 04:17:00,58.8,39.2,29.35,SE,136,0.0,0.0,48,0.00,,,0.00,VWS V13.01,2013-09-07 08:17:00,
2013-09-07 04:22:00,58.8,39.2,29.35,SE,136,0.0,0.0,48,0.00,,,0.00,VWS V13.01,2013-09-07 08:22:00,
2013-09-07 04:27:00,58.8,39.2,29.35,SE,136,0.0,0.0,48,0.00,,,0.00,VWS V13.01,2013-09-07 08:27:00,
2013-09-07 04:32:00,58.6,39.0,29.35,SE,136,0.0,0.0,48,0.00,,,0.00,VWS V13.01,2013-09-07 08:32:00,
2013-09-07 04:37:00,58.5,38.9,29.35,SE,136,0.0,0.0,48,0.00,,,0.00,VWS V13.01,2013-09-07 08:37:00,
2013-09-07 04:42:00,58.5,38.9,29.35,SE,136,0.0,0.0,48,0.00,,,0.00,VWS V13.01,2013-09-07 08:42:00,
2013-09-07 04:47:00,58.3,38.7,29.35,SE,136,0.0,0.0,48,0.00,,,0.00,VWS V13.01,2013-09-07 08:47:00,
2013-09-07 04:53:00,58.3,39.2,29.35,SE,136,0.0,0.0,49,0.00,,,0.00,VWS V13.01,2013-09-07 08:53:00,
2013-09-07 04:57:00,58.1,39.1,29.35,SE,136,0.0,0.0,49,0.00,,,0.00,VWS V13.01,2013-09-07 08:57:00,
2013-09-07 05:03:00,57.9,38.9,29.35,SE,136,0.0,0.0,49,0.00,,,0.00,VWS V13.01,2013-09-07 09:03:00,
2013-09-07 05:07:00,57.9,38.9,29.35,SE,136,0.0,0.0,49,0.00,,,0.00,VWS V13.01,2013-09-07 09:07:00,
2013-09-07 05:13:00,57.9,38.9,29.35,SE,136,0.0,0.0,49,0.00,,,0.00,VWS V13.01,2013-09-07 09:13:00,
2013-09-07 05:17:00,57.7,38.7,29.35,SE,136,0.0,0.0,49,0.00,,,0.00,VWS V13.01,2013-09-07 09:17:00,
2013-09-07 05:23:00,57.7,39.2,29.35,SE,136,0.0,0.0,50,0.00,,,0.00,VWS V13.01,2013-09-07 09:23:00,
2013-09-07 05:28:00,57.6,39.1,29.35,SE,136,0.0,0.0,50,0.00,,,0.00,VWS V13.01,2013-09-07 09:28:00,
2013-09-07 05:33:00,57.6,39.1,29.35,SE,136,0.0,0.0,50,0.00,,,0.00,VWS V13.01,2013-09-07 09:33:00,
2013-09-07 05:38:00,57.6,39.1,29.35,SE,136,0.0,0.0,50,0.00,,,0.00,VWS V13.01,2013-09-07 09:38:00,
2013-09-07 05:43:00,57.6,39.1,29.35,SE,136,0.0,0.0,50,0.00,,,0.00,VWS V13.01,2013-09-07 09:43:00,
2013-09-07 05:48:00,57.4,38.9,29.35,SE,136,0.0,0.0,50,0.00,,,0.00,VWS V13.01,2013-09-07 09:48:00,
2013-09-07 05:53:00,57.4,39.4,29.35,SE,136,0.0,0.0,51,0.00,,,0.00,VWS V13.01,2013-09-07 09:53:00,
2013-09-07 05:58:00,57.4,39.4,29.35,SE,136,0.0,0.0,51,0.00,,,0.00,VWS V13.01,2013-09-07 09:58:00,
2013-09-07 06:03:00,57.4,39.4,29.35,SE,136,0.0,0.0,51,0.00,,,0.00,VWS V13.01,2013-09-07 10:03:00,
2013-09-07 06:08:00,57.4,39.4,29.35,SE,136,0.0,0.0,51,0.00,,,0.00,VWS V13.01,2013-09-07 10:08:00,
2013-09-07 06:13:00,57.4,39.4,29.35,SE,136,0.0,0.0,51,0.00,,,0.00,VWS V13.01,2013-09-07 10:13:00,
2013-09-07 06:18:00,57.4,39.4,29.35,SE,136,0.0,0.0,51,0.00,,,0.00,VWS V13.01,2013-09-07 10:18:00,
2013-09-07 06:23:00,57.4,39.4,29.35,SE,136,0.0,0.0,51,0.00,,,0.00,VWS V13.01,2013-09-07 10:23:00,
2013-09-07 06:28:00,57.2,39.2,29.35,SE,136,0.0,0.0,51,0.00,,,0.00,VWS V13.01,2013-09-07 10:28:00,
2013-09-07 06:33:00,57.2,39.8,29.35,SE,136,0.0,0.0,52,0.00,,,0.00,VWS V13.01,2013-09-07 10:33:00,
2013-09-07 06:38:00,57.2,39.8,29.35,SE,136,0.0,0.0,52,0.00,,,0.00,VWS V13.01,2013-09-07 10:38:00,
2013-09-07 06:43:00,57.4,39.9,29.35,SE,136,0.0,0.0,52,0.00,,,0.00,VWS V13.01,2013-09-07 10:43:00,
2013-09-07 06:48:00,57.4,39.9,29.35,SE,136,0.0,0.0,52,0.00,,,0.00,VWS V13.01,2013-09-07 10:48:00,
2013-09-07 06:53:00,57.2,39.8,29.35,SE,136,0.0,0.0,52,0.00,,,0.00,VWS V13.01,2013-09-07 10:53:00,
2013-09-07 06:58:00,57.2,39.8,29.35,SE,136,0.0,0.0,52,0.00,,,0.00,VWS V13.01,2013-09-07 10:58:00,
2013-09-07 07:03:00,57.2,39.8,29.35,SE,136,0.0,0.0,52,0.00,,,0.00,VWS V13.01,2013-09-07 11:03:00,
2013-09-07 07:08:00,57.2,40.2,29.35,SE,136,0.0,0.0,53,0.00,,,0.00,VWS V13.01,2013-09-07 11:08:00,
2013-09-07 07:13:00,57.2,40.2,29.35,SE,136,0.0,0.0,53,0.00,,,0.00,VWS V13.01,2013-09-07 11:13:00,
2013-09-07 07:18:00,57.0,40.1,29.35,SE,136,0.0,0.0,53,0.00,,,0.00,VWS V13.01,2013-09-07 11:18:00,
2013-09-07 07:23:00,57.0,40.6,29.35,SE,136,0.0,0.0,54,0.00,,,0.00,VWS V13.01,2013-09-07 11:23:00,
2013-09-07 07:28:00,57.0,40.6,29.38,SE,137,0.0,0.0,54,0.00,,,0.00,VWS V13.01,2013-09-07 11:28:00,
2013-09-07 07:33:00,57.0,40.6,29.38,SE,137,0.0,0.0,54,0.00,,,0.00,VWS V13.01,2013-09-07 11:33:00,
2013-09-07 07:38:00,57.0,40.6,29.38,SW,232,0.0,0.0,54,0.00,,,0.00,VWS V13.01,2013-09-07 11:38:00,
2013-09-07 07:43:00,57.2,40.7,29.38,West,274,0.0,0.0,54,0.00,,,0.00,VWS V13.01,2013-09-07 11:43:00,
2013-09-07 07:48:00,57.2,40.7,29.38,West,276,0.0,0.0,54,0.00,,,0.00,VWS V13.01,2013-09-07 11:48:00,
2013-09-07 07:53:00,57.2,40.7,29.38,West,276,0.0,0.0,54,0.00,,,0.00,VWS V13.01,2013-09-07 11:53:00,
2013-09-07 07:58:00,57.4,40.9,29.38,West,275,0.0,0.0,54,0.00,,,0.00,VWS V13.01,2013-09-07 11:58:00,
2013-09-07 08:03:00,57.9,41.9,29.38,West,275,0.0,0.0,55,0.00,,,0.00,VWS V13.01,2013-09-07 12:03:00,
2013-09-07 08:08:00,58.1,42.0,29.38,NNE,13,0.0,0.0,55,0.00,,,0.00,VWS V13.01,2013-09-07 12:08:00,
2013-09-07 08:13:00,58.5,42.4,29.38,North,2,0.0,0.0,55,0.00,,,0.00,VWS V13.01,2013-09-07 12:13:00,
2013-09-07 08:18:00,58.8,42.7,29.38,North,2,0.0,0.0,55,0.00,,,0.00,VWS V13.01,2013-09-07 12:18:00,
2013-09-07 08:23:00,59.4,43.2,29.38,North,2,0.0,0.0,55,0.00,,,0.00,VWS V13.01,2013-09-07 12:23:00,
2013-09-07 08:28:00,60.3,44.5,29.38,ESE,114,0.0,2.2,56,0.00,,,0.00,VWS V13.01,2013-09-07 12:28:00,
2013-09-07 08:33:00,60.6,45.3,29.38,NNE,28,0.0,0.0,57,0.00,,,0.00,VWS V13.01,2013-09-07 12:33:00,
2013-09-07 08:38:00,61.3,46.0,29.38,North,353,0.0,2.2,57,0.00,,,0.00,VWS V13.01,2013-09-07 12:38:00,
2013-09-07 08:43:00,62.1,46.7,29.38,North,353,0.0,2.2,57,0.00,,,0.00,VWS V13.01,2013-09-07 12:43:00,
2013-09-07 08:48:00,62.8,46.9,29.38,North,353,0.0,0.0,56,0.00,,,0.00,VWS V13.01,2013-09-07 12:48:00,
2013-09-07 08:53:00,63.0,46.1,29.38,SE,140,2.2,4.0,54,0.00,,,0.00,VWS V13.01,2013-09-07 12:53:00,
2013-09-07 08:58:00,63.1,43.7,29.38,SSE,154,2.7,3.1,49,0.00,,,0.00,VWS V13.01,2013-09-07 12:58:00,
2013-09-07 09:03:00,63.1,41.5,29.38,South,169,2.2,4.0,45,0.00,,,0.00,VWS V13.01,2013-09-07 13:03:00,
2013-09-07 09:08:00,63.5,39.4,29.38,SSE,150,3.1,4.0,41,0.00,,,0.00,VWS V13.01,2013-09-07 13:08:00,
2013-09-07 09:13:00,63.9,37.8,29.35,SSE,168,2.7,4.0,38,0.00,,,0.00,VWS V13.01,2013-09-07 13:13:00,
2013-09-07 09:18:00,64.4,36.9,29.35,East,100,2.2,4.0,36,0.00,,,0.00,VWS V13.01,2013-09-07 13:18:00,
2013-09-07 09:23:00,65.3,37.7,29.35,SSE,158,2.7,2.7,36,0.00,,,0.00,VWS V13.01,2013-09-07 13:23:00,
2013-09-07 09:28:00,65.8,36.7,29.35,SSE,153,4.0,5.4,34,0.00,,,0.00,VWS V13.01,2013-09-07 13:28:00,
2013-09-07 09:33:00,66.4,36.4,29.38,SSE,168,5.8,5.8,33,0.00,,,0.00,VWS V13.01,2013-09-07 13:33:00,
2013-09-07 09:38:00,66.6,36.6,29.38,SSE,155,3.1,5.8,33,0.00,,,0.00,VWS V13.01,2013-09-07 13:38:00,
2013-09-07 09:43:00,66.9,36.9,29.38,ESE,115,4.0,5.4,33,0.00,,,0.00,VWS V13.01,2013-09-07 13:43:00,
2013-09-07 09:48:00,67.6,36.8,29.38,South,181,2.7,5.8,32,0.00,,,0.00,VWS V13.01,2013-09-07 13:48:00,
2013-09-07 09:53:00,68.2,35.6,29.38,South,173,0.0,4.0,30,0.00,,,0.00,VWS V13.01,2013-09-07 13:53:00,
2013-09-07 09:58:00,68.7,35.2,29.38,SW,216,0.0,4.9,29,0.00,,,0.00,VWS V13.01,2013-09-07 13:58:00,
2013-09-07 10:03:00,69.1,34.6,29.38,South,179,2.2,4.0,28,0.00,,,0.00,VWS V13.01,2013-09-07 14:03:00,
2013-09-07 10:08:00,69.3,34.8,29.38,South,186,0.0,4.9,28,0.00,,,0.00,VWS V13.01,2013-09-07 14:08:00,
2013-09-07 10:13:00,69.6,36.0,29.38,South,180,0.0,4.0,29,0.00,,,0.00,VWS V13.01,2013-09-07 14:13:00,
2013-09-07 10:18:00,70.2,34.7,29.38,South,180,3.1,3.6,27,0.00,,,0.00,VWS V13.01,2013-09-07 14:18:00,
2013-09-07 10:23:00,70.7,34.2,29.38,SSE,160,0.0,4.9,26,0.00,,,0.00,VWS V13.01,2013-09-07 14:23:00,
2013-09-07 10:28:00,71.4,33.8,29.38,SE,141,3.6,4.9,25,0.00,,,0.00,VWS V13.01,2013-09-07 14:28:00,
2013-09-07 10:33:00,72.1,33.4,29.38,SW,232,3.6,3.6,24,0.00,,,0.00,VWS V13.01,2013-09-07 14:33:00,
2013-09-07 10:38:00,72.1,33.4,29.38,SW,236,3.1,3.6,24,0.00,,,0.00,VWS V13.01,2013-09-07 14:38:00,
2013-09-07 10:43:00,72.1,32.3,29.38,South,184,2.7,3.1,23,0.00,,,0.00,VWS V13.01,2013-09-07 14:43:00,
2013-09-07 10:48:00,72.3,32.5,29.38,SSW,211,3.1,4.0,23,0.00,,,0.00,VWS V13.01,2013-09-07 14:48:00,
2013-09-07 10:53:00,72.5,32.6,29.38,SSW,204,2.7,3.6,23,0.00,,,0.00,VWS V13.01,2013-09-07 14:53:00,
2013-09-07 10:58:00,72.9,34.0,29.38,NNW,335,0.0,2.7,24,0.00,,,0.00,VWS V13.01,2013-09-07 14:58:00,
2013-09-07 11:03:00,73.6,33.5,29.38,SSW,204,0.0,3.1,23,0.00,,,0.00,VWS V13.01,2013-09-07 15:03:00,
2013-09-07 11:08:00,74.1,34.0,29.38,WNW,283,2.2,2.2,23,0.00,,,0.00,VWS V13.01,2013-09-07 15:08:00,
2013-09-07 11:13:00,74.8,33.5,29.38,WNW,291,4.9,4.9,22,0.00,,,0.00,VWS V13.01,2013-09-07 15:13:00,
2013-09-07 11:18:00,75.0,32.5,29.38,NW,324,2.2,3.1,21,0.00,,,0.00,VWS V13.01,2013-09-07 15:18:00,
2013-09-07 11:23:00,75.4,32.8,29.38,SW,226,3.1,4.0,21,0.00,,,0.00,VWS V13.01,2013-09-07 15:23:00,
2013-09-07 11:28:00,75.6,32.9,29.38,West,271,0.0,3.6,21,0.00,,,0.00,VWS V13.01,2013-09-07 15:28:00,
2013-09-07 11:33:00,75.7,33.1,29.38,WSW,237,3.1,4.9,21,0.00,,,0.00,VWS V13.01,2013-09-07 15:33:00,
2013-09-07 11:38:00,75.9,33.2,29.38,SW,220,3.1,3.6,21,0.00,,,0.00,VWS V13.01,2013-09-07 15:38:00,
2013-09-07 11:43:00,76.5,33.7,29.38,NW,309,2.2,3.6,21,0.00,,,0.00,VWS V13.01,2013-09-07 15:43:00,
2013-09-07 11:48:00,77.0,32.9,29.38,NW,310,2.2,3.1,20,0.00,,,0.00,VWS V13.01,2013-09-07 15:48:00,
2013-09-07 11:53:00,77.4,33.2,29.38,North,0,0.0,2.7,20,0.00,,,0.00,VWS V13.01,2013-09-07 15:53:00,
2013-09-07 11:58:00,77.7,30.9,29.38,North,0,4.0,4.0,18,0.00,,,0.00,VWS V13.01,2013-09-07 15:58:00,
2013-09-07 12:03:00,77.9,31.0,29.38,NE,37,2.2,4.0,18,0.00,,,0.00,VWS V13.01,2013-09-07 16:03:00,
2013-09-07 12:08:00,78.4,31.5,29.38,NW,315,2.2,3.6,18,0.00,,,0.00,VWS V13.01,2013-09-07 16:08:00,
2013-09-07 12:13:00,78.8,27.3,29.35,NW,313,5.4,7.2,15,0.00,,,0.00,VWS V13.01,2013-09-07 16:13:00,
2013-09-07 12:18:00,79.0,27.4,29.35,WNW,286,4.0,4.9,15,0.00,,,0.00,VWS V13.01,2013-09-07 16:18:00,
2013-09-07 12:23:00,79.2,22.2,29.35,NNW,345,2.2,4.0,12,0.00,,,0.00,VWS V13.01,2013-09-07 16:23:00,
2013-09-07 12:28:00,79.7,22.6,29.35,WNW,301,5.4,5.4,12,0.00,,,0.00,VWS V13.01,2013-09-07 16:28:00,
2013-09-07 12:33:00,80.2,23.1,29.35,SW,226,2.7,4.0,12,0.00,,,0.00,VWS V13.01,2013-09-07 16:33:00,
2013-09-07 12:38:00,80.4,23.2,29.35,South,172,3.6,5.8,12,0.00,,,0.00,VWS V13.01,2013-09-07 16:38:00,
2013-09-07 12:43:00,80.8,23.5,29.35,SSE,160,0.0,3.6,12,0.00,,,0.00,VWS V13.01,2013-09-07 16:43:00,
2013-09-07 12:48:00,81.3,23.9,29.35,SW,224,2.7,4.0,12,0.00,,,0.00,VWS V13.01,2013-09-07 16:48:00,
2013-09-07 12:53:00,81.9,24.3,29.35,SW,221,3.1,5.4,12,0.00,,,0.00,VWS V13.01,2013-09-07 16:53:00,
2013-09-07 12:58:00,82.0,17.7,29.35,NNW,329,0.0,4.5,9,0.00,,,0.00,VWS V13.01,2013-09-07 16:58:00,
2013-09-07 13:03:00,82.2,17.8,29.35,South,187,0.0,4.0,9,0.00,,,0.00,VWS V13.01,2013-09-07 17:03:00,
2013-09-07 13:08:00,82.0,17.7,29.35,SW,233,3.1,7.2,9,0.00,,,0.00,VWS V13.01,2013-09-07 17:08:00,
2013-09-07 13:13:00,81.7,17.4,29.35,WSW,258,2.7,4.9,9,0.00,,,0.00,VWS V13.01,2013-09-07 17:13:00,
2013-09-07 13:18:00,82.0,17.7,29.35,WNW,303,4.0,5.4,9,0.00,,,0.00,VWS V13.01,2013-09-07 17:18:00,
2013-09-07 13:23:00,82.0,17.7,29.35,North,0,2.7,3.6,9,0.00,,,0.00,VWS V13.01,2013-09-07 17:23:00,
2013-09-07 13:28:00,82.6,18.1,29.32,NNW,344,5.8,5.8,9,0.00,,,0.00,VWS V13.01,2013-09-07 17:28:00,
2013-09-07 13:33:00,82.2,17.8,29.32,WNW,290,3.1,3.6,9,0.00,,,0.00,VWS V13.01,2013-09-07 17:33:00,
2013-09-07 13:38:00,82.2,17.8,29.32,NNE,14,2.2,5.8,9,0.00,,,0.00,VWS V13.01,2013-09-07 17:38:00,
2013-09-07 13:43:00,82.6,18.1,29.32,SSW,211,2.7,4.0,9,0.00,,,0.00,VWS V13.01,2013-09-07 17:43:00,
2013-09-07 13:48:00,82.9,18.4,29.32,North,357,2.7,4.0,9,0.00,,,0.00,VWS V13.01,2013-09-07 17:48:00,
2013-09-07 13:53:00,82.9,18.4,29.32,South,182,4.9,5.8,9,0.00,,,0.00,VWS V13.01,2013-09-07 17:53:00,
2013-09-07 13:58:00,83.3,18.6,29.32,NNE,30,0.0,4.0,9,0.00,,,0.00,VWS V13.01,2013-09-07 17:58:00,
2013-09-07 14:03:00,83.8,19.0,29.32,West,261,3.6,5.8,9,0.00,,,0.00,VWS V13.01,2013-09-07 18:03:00,
2013-09-07 14:08:00,83.8,19.0,29.32,West,266,4.0,4.0,9,0.00,,,0.00,VWS V13.01,2013-09-07 18:08:00,
2013-09-07 14:13:00,84.0,19.2,29.32,NW,304,3.6,4.0,9,0.00,,,0.00,VWS V13.01,2013-09-07 18:13:00,
2013-09-07 14:18:00,84.2,16.6,29.32,North,357,0.0,5.8,8,0.00,,,0.00,VWS V13.01,2013-09-07 18:18:00,
2013-09-07 14:23:00,84.2,16.6,29.32,NNE,12,4.0,5.4,8,0.00,,,0.00,VWS V13.01,2013-09-07 18:23:00,
2013-09-07 14:28:00,84.0,19.2,29.32,ENE,71,0.0,3.6,9,0.00,,,0.00,VWS V13.01,2013-09-07 18:28:00,
2013-09-07 14:33:00,84.4,16.7,29.32,NNW,345,3.6,5.4,8,0.00,,,0.00,VWS V13.01,2013-09-07 18:33:00,
2013-09-07 14:38:00,84.4,16.7,29.32,NNW,339,4.0,4.0,8,0.00,,,0.00,VWS V13.01,2013-09-07 18:38:00,
2013-09-07 14:43:00,84.2,16.6,29.32,NNW,348,3.1,4.0,8,0.00,,,0.00,VWS V13.01,2013-09-07 18:43:00,
2013-09-07 14:48:00,83.8,19.0,29.32,NNE,13,2.7,4.9,9,0.00,,,0.00,VWS V13.01,2013-09-07 18:48:00,
2013-09-07 14:53:00,84.6,16.9,29.32,North,350,3.1,4.0,8,0.00,,,0.00,VWS V13.01,2013-09-07 18:53:00,
2013-09-07 14:58:00,84.7,17.0,29.29,SW,228,4.0,5.4,8,0.00,,,0.00,VWS V13.01,2013-09-07 18:58:00,
2013-09-07 15:03:00,84.9,17.1,29.29,SW,226,4.0,6.3,8,0.00,,,0.00,VWS V13.01,2013-09-07 19:03:00,
2013-09-07 15:08:00,84.9,17.1,29.29,WNW,297,2.7,3.1,8,0.00,,,0.00,VWS V13.01,2013-09-07 19:08:00,
2013-09-07 15:13:00,85.1,17.2,29.29,WNW,292,2.7,10.1,8,0.00,,,0.00,VWS V13.01,2013-09-07 19:13:00,
2013-09-07 15:18:00,85.3,17.4,29.29,South,191,5.8,7.6,8,0.00,,,0.00,VWS V13.01,2013-09-07 19:18:00,
2013-09-07 15:23:00,85.5,17.5,29.29,WNW,299,5.8,5.8,8,0.00,,,0.00,VWS V13.01,2013-09-07 19:23:00,
2013-09-07 15:28:00,85.6,17.6,29.29,West,266,3.6,6.3,8,0.00,,,0.00,VWS V13.01,2013-09-07 19:28:00,
2013-09-07 15:33:00,85.5,17.5,29.29,East,79,3.1,3.1,8,0.00,,,0.00,VWS V13.01,2013-09-07 19:33:00,
2013-09-07 15:38:00,85.3,17.4,29.29,SW,229,3.6,5.4,8,0.00,,,0.00,VWS V13.01,2013-09-07 19:38:00,
2013-09-07 15:43:00,85.1,17.2,29.29,WNW,300,5.8,5.8,8,0.00,,,0.00,VWS V13.01,2013-09-07 19:43:00,
2013-09-07 15:48:00,85.3,17.4,29.29,NNW,344,4.0,6.3,8,0.00,,,0.00,VWS V13.01,2013-09-07 19:48:00,
2013-09-07 15:53:00,85.1,17.2,29.29,NW,323,0.0,3.6,8,0.00,,,0.00,VWS V13.01,2013-09-07 19:53:00,
2013-09-07 15:58:00,84.9,17.1,29.29,North,357,2.2,5.4,8,0.00,,,0.00,VWS V13.01,2013-09-07 19:58:00,
2013-09-07 16:03:00,85.5,17.5,29.29,WNW,299,5.4,5.8,8,0.00,,,0.00,VWS V13.01,2013-09-07 20:03:00,
2013-09-07 16:08:00,85.8,17.8,29.29,WNW,303,3.1,4.0,8,0.00,,,0.00,VWS V13.01,2013-09-07 20:08:00,
2013-09-07 16:13:00,86.4,18.2,29.26,NE,44,4.0,5.4,8,0.00,,,0.00,VWS V13.01,2013-09-07 20:13:00,
2013-09-07 16:18:00,86.5,18.3,29.26,SW,229,3.1,5.4,8,0.00,,,0.00,VWS V13.01,2013-09-07 20:18:00,
2013-09-07 16:23:00,86.7,18.5,29.26,SW,235,2.7,4.0,8,0.00,,,0.00,VWS V13.01,2013-09-07 20:23:00,
2013-09-07 16:28:00,87.1,18.7,29.26,West,279,2.7,4.0,8,0.00,,,0.00,VWS V13.01,2013-09-07 20:28:00,
2013-09-07 16:33:00,86.9,18.6,29.26,SW,226,2.7,3.1,8,0.00,,,0.00,VWS V13.01,2013-09-07 20:33:00,
2013-09-07 16:38:00,86.9,18.6,29.26,WSW,237,5.4,5.4,8,0.00,,,0.00,VWS V13.01,2013-09-07 20:38:00,
2013-09-07 16:43:00,86.7,18.5,29.26,WNW,290,3.1,5.8,8,0.00,,,0.00,VWS V13.01,2013-09-07 20:43:00,
2013-09-07 16:48:00,86.7,18.5,29.26,SW,224,3.1,5.4,8,0.00,,,0.00,VWS V13.01,2013-09-07 20:48:00,
2013-09-07 16:53:00,86.4,18.2,29.26,West,259,2.7,4.0,8,0.00,,,0.00,VWS V13.01,2013-09-07 20:53:00,
2013-09-07 16:58:00,86.5,18.3,29.23,NW,311,5.8,5.8,8,0.00,,,0.00,VWS V13.01,2013-09-07 20:58:00,
2013-09-07 17:03:00,86.5,18.3,29.23,WNW,287,3.1,5.8,8,0.00,,,0.00,VWS V13.01,2013-09-07 21:03:00,
2013-09-07 17:08:00,86.2,18.0,29.23,WNW,284,2.2,3.1,8,0.00,,,0.00,VWS V13.01,2013-09-07 21:08:00,
2013-09-07 17:13:00,86.2,18.0,29.26,West,274,4.0,4.0,8,0.00,,,0.00,VWS V13.01,2013-09-07 21:13:00,
2013-09-07 17:18:00,86.5,18.3,29.26,West,277,0.0,4.9,8,0.00,,,0.00,VWS V13.01,2013-09-07 21:18:00,
2013-09-07 17:23:00,86.5,18.3,29.26,SSW,201,4.9,5.8,8,0.00,,,0.00,VWS V13.01,2013-09-07 21:23:00,
2013-09-07 17:28:00,86.4,18.2,29.26,WSW,241,3.6,4.0,8,0.00,,,0.00,VWS V13.01,2013-09-07 21:28:00,
2013-09-07 17:33:00,86.4,18.2,29.26,South,186,4.0,4.9,8,0.00,,,0.00,VWS V13.01,2013-09-07 21:33:00,
2013-09-07 17:38:00,86.4,18.2,29.26,WSW,258,4.9,5.4,8,0.00,,,0.00,VWS V13.01,2013-09-07 21:38:00,
2013-09-07 17:43:00,86.2,18.0,29.26,NE,43,0.0,3.6,8,0.00,,,0.00,VWS V13.01,2013-09-07 21:43:00,
2013-09-07 17:48:00,86.4,18.2,29.26,WNW,294,0.0,4.9,8,0.00,,,0.00,VWS V13.01,2013-09-07 21:48:00,
2013-09-07 17:53:00,86.4,18.2,29.26,West,260,0.0,3.1,8,0.00,,,0.00,VWS V13.01,2013-09-07 21:53:00,
2013-09-07 17:58:00,86.4,18.2,29.26,NNW,329,0.0,3.6,8,0.00,,,0.00,VWS V13.01,2013-09-07 21:58:00,
2013-09-07 18:03:00,86.4,18.2,29.26,WNW,293,3.1,4.0,8,0.00,,,0.00,VWS V13.01,2013-09-07 22:03:00,
2013-09-07 18:08:00,86.0,17.9,29.26,WSW,240,0.0,4.0,8,0.00,,,0.00,VWS V13.01,2013-09-07 22:08:00,
2013-09-07 18:13:00,86.2,18.0,29.26,WSW,246,0.0,2.2,8,0.00,,,0.00,VWS V13.01,2013-09-07 22:13:00,
2013-09-07 18:18:00,86.2,18.0,29.26,WNW,284,0.0,3.6,8,0.00,,,0.00,VWS V13.01,2013-09-07 22:18:00,
2013-09-07 18:23:00,86.2,18.0,29.26,NW,317,2.2,4.0,8,0.00,,,0.00,VWS V13.01,2013-09-07 22:23:00,
2013-09-07 18:28:00,86.2,18.0,29.23,WNW,293,0.0,5.4,8,0.00,,,0.00,VWS V13.01,2013-09-07 22:28:00,
2013-09-07 18:33:00,86.0,17.9,29.23,WNW,297,3.1,3.1,8,0.00,,,0.00,VWS V13.01,2013-09-07 22:33:00,
2013-09-07 18:38:00,85.8,17.8,29.23,WSW,237,0.0,0.0,8,0.00,,,0.00,VWS V13.01,2013-09-07 22:38:00,
2013-09-07 18:43:00,85.5,17.5,29.26,WSW,243,3.1,4.9,8,0.00,,,0.00,VWS V13.01,2013-09-07 22:43:00,
2013-09-07 18:48:00,84.7,17.0,29.26,West,280,0.0,3.6,8,0.00,,,0.00,VWS V13.01,2013-09-07 22:48:00,
2013-09-07 18:53:00,84.4,16.7,29.26,WNW,300,2.2,2.2,8,0.00,,,0.00,VWS V13.01,2013-09-07 22:53:00,
2013-09-07 18:58:00,84.0,19.2,29.26,SW,233,0.0,0.0,9,0.00,,,0.00,VWS V13.01,2013-09-07 22:58:00,
2013-09-07 19:03:00,83.8,19.0,29.26,SW,233,0.0,0.0,9,0.00,,,0.00,VWS V13.01,2013-09-07 23:03:00,
2013-09-07 19:08:00,83.5,18.8,29.26,SW,233,0.0,0.0,9,0.00,,,0.00,VWS V13.01,2013-09-07 23:08:00,
2013-09-07 19:13:00,83.3,23.4,29.26,SW,233,0.0,0.0,11,0.00,,,0.00,VWS V13.01,2013-09-07 23:13:00,
2013-09-07 19:18:00,82.9,23.1,29.26,SW,233,0.0,0.0,11,0.00,,,0.00,VWS V13.01,2013-09-07 23:18:00,
2013-09-07 19:23:00,82.4,22.7,29.26,SW,233,0.0,0.0,11,0.00,,,0.00,VWS V13.01,2013-09-07 23:23:00,
2013-09-07 19:28:00,82.0,24.5,29.26,SW,233,0.0,0.0,12,0.00,,,0.00,VWS V13.01,2013-09-07 23:28:00,
2013-09-07 19:33:00,81.7,24.2,29.26,SW,233,0.0,0.0,12,0.00,,,0.00,VWS V13.01,2013-09-07 23:33:00,
2013-09-07 19:38:00,81.1,23.8,29.26,SW,233,0.0,0.0,12,0.00,,,0.00,VWS V13.01,2013-09-07 23:38:00,
2013-09-07 19:43:00,80.2,28.4,29.26,SW,233,0.0,0.0,15,0.00,,,0.00,VWS V13.01,2013-09-07 23:43:00,
2013-09-07 19:48:00,79.3,30.8,29.26,SW,233,0.0,0.0,17,0.00,,,0.00,VWS V13.01,2013-09-07 23:48:00,
2013-09-07 19:53:00,78.8,30.4,29.26,SW,233,0.0,0.0,17,0.00,,,0.00,VWS V13.01,2013-09-07 23:53:00,
2013-09-07 19:58:00,78.1,33.8,29.26,SW,233,0.0,0.0,20,0.00,,,0.00,VWS V13.01,2013-09-07 23:58:00,
2013-09-07 20:03:00,77.4,34.4,29.26,SW,233,0.0,0.0,21,0.00,,,0.00,VWS V13.01,2013-09-08 00:03:00,
2013-09-07 20:08:00,76.3,34.7,29.26,South,175,0.0,0.0,22,0.00,,,0.00,VWS V13.01,2013-09-08 00:08:00,
2013-09-07 20:13:00,75.6,35.2,29.26,South,175,0.0,0.0,23,0.00,,,0.00,VWS V13.01,2013-09-08 00:13:00,
2013-09-07 20:18:00,74.8,36.7,29.26,South,175,0.0,0.0,25,0.00,,,0.00,VWS V13.01,2013-09-08 00:18:00,
2013-09-07 20:23:00,74.5,38.3,29.26,South,175,0.0,0.0,27,0.00,,,0.00,VWS V13.01,2013-09-08 00:23:00,
2013-09-07 20:28:00,74.1,39.0,29.26,South,175,0.0,0.0,28,0.00,,,0.00,VWS V13.01,2013-09-08 00:28:00,
2013-09-07 20:33:00,73.8,40.4,29.26,South,175,0.0,0.0,30,0.00,,,0.00,VWS V13.01,2013-09-08 00:33:00,
2013-09-07 20:38:00,73.6,41.9,29.26,South,175,0.0,0.0,32,0.00,,,0.00,VWS V13.01,2013-09-08 00:38:00,
2013-09-07 20:43:00,73.4,41.8,29.26,South,175,0.0,0.0,32,0.00,,,0.00,VWS V13.01,2013-09-08 00:43:00,
2013-09-07 20:48:00,73.2,41.6,29.26,SW,225,0.0,0.0,32,0.00,,,0.00,VWS V13.01,2013-09-08 00:48:00,
2013-09-07 20:53:00,73.0,41.5,29.26,SW,225,0.0,0.0,32,0.00,,,0.00,VWS V13.01,2013-09-08 00:53:00,
2013-09-07 20:58:00,72.9,41.3,29.26,South,173,0.0,0.0,32,0.00,,,0.00,VWS V13.01,2013-09-08 00:58:00,
2013-09-07 21:03:00,72.5,41.8,29.26,SSE,164,0.0,0.0,33,0.00,,,0.00,VWS V13.01,2013-09-08 01:03:00,
2013-09-07 21:08:00,72.3,42.4,29.26,SSW,193,0.0,0.0,34,0.00,,,0.00,VWS V13.01,2013-09-08 01:08:00,
2013-09-07 21:14:00,72.3,42.4,29.26,SSW,193,0.0,0.0,34,0.00,,,0.00,VWS V13.01,2013-09-08 01:14:00,
2013-09-07 21:19:00,72.1,42.2,29.26,South,181,0.0,0.0,34,0.00,,,0.00,VWS V13.01,2013-09-08 01:19:00,
2013-09-07 21:24:00,72.0,42.1,29.26,South,181,0.0,0.0,34,0.00,,,0.00,VWS V13.01,2013-09-08 01:24:00,
2013-09-07 21:29:00,71.8,41.9,29.26,South,181,0.0,0.0,34,0.00,,,0.00,VWS V13.01,2013-09-08 01:29:00,
2013-09-07 21:34:00,71.6,41.8,29.26,South,181,0.0,0.0,34,0.00,,,0.00,VWS V13.01,2013-09-08 01:34:00,
2013-09-07 21:39:00,71.6,42.5,29.26,South,181,0.0,0.0,35,0.00,,,0.00,VWS V13.01,2013-09-08 01:39:00,
2013-09-07 21:44:00,71.4,42.4,29.26,South,181,0.0,0.0,35,0.00,,,0.00,VWS V13.01,2013-09-08 01:44:00,
2013-09-07 21:49:00,71.2,42.9,29.26,South,181,0.0,0.0,36,0.00,,,0.00,VWS V13.01,2013-09-08 01:49:00,
2013-09-07 21:54:00,71.2,42.9,29.26,South,181,0.0,0.0,36,0.00,,,0.00,VWS V13.01,2013-09-08 01:54:00,
2013-09-07 21:59:00,71.1,43.5,29.26,South,181,0.0,0.0,37,0.00,,,0.00,VWS V13.01,2013-09-08 01:59:00,
2013-09-07 22:04:00,71.1,44.2,29.26,South,181,0.0,0.0,38,0.00,,,0.00,VWS V13.01,2013-09-08 02:04:00,
2013-09-07 22:09:00,70.9,44.0,29.26,South,181,0.0,0.0,38,0.00,,,0.00,VWS V13.01,2013-09-08 02:09:00,
2013-09-07 22:14:00,70.9,44.7,29.26,South,181,0.0,0.0,39,0.00,,,0.00,VWS V13.01,2013-09-08 02:14:00,
2013-09-07 22:19:00,70.7,44.5,29.26,South,181,0.0,0.0,39,0.00,,,0.00,VWS V13.01,2013-09-08 02:19:00,
2013-09-07 22:24:00,70.7,44.5,29.26,South,181,0.0,0.0,39,0.00,,,0.00,VWS V13.01,2013-09-08 02:24:00,
2013-09-07 22:29:00,70.5,45.1,29.26,South,181,0.0,0.0,40,0.00,,,0.00,VWS V13.01,2013-09-08 02:29:00,
2013-09-07 22:34:00,70.3,44.9,29.26,South,181,0.0,0.0,40,0.00,,,0.00,VWS V13.01,2013-09-08 02:34:00,
2013-09-07 22:39:00,70.2,45.4,29.26,South,181,0.0,0.0,41,0.00,,,0.00,VWS V13.01,2013-09-08 02:39:00,
2013-09-07 22:44:00,70.0,45.2,29.26,South,181,0.0,0.0,41,0.00,,,0.00,VWS V13.01,2013-09-08 02:44:00,
2013-09-07 22:49:00,70.0,45.9,29.26,South,181,0.0,0.0,42,0.00,,,0.00,VWS V13.01,2013-09-08 02:49:00,
2013-09-07 22:54:00,69.8,45.7,29.26,South,181,0.0,0.0,42,0.00,,,0.00,VWS V13.01,2013-09-08 02:54:00,
2013-09-07 22:59:00,69.6,46.2,29.26,South,181,0.0,0.0,43,0.00,,,0.00,VWS V13.01,2013-09-08 02:59:00,
2013-09-07 23:04:00,69.4,46.0,29.26,South,181,0.0,0.0,43,0.00,,,0.00,VWS V13.01,2013-09-08 03:04:00,
2013-09-07 23:09:00,69.3,46.4,29.26,South,181,0.0,0.0,44,0.00,,,0.00,VWS V13.01,2013-09-08 03:09:00,
2013-09-07 23:14:00,69.1,46.3,29.26,South,181,0.0,0.0,44,0.00,,,0.00,VWS V13.01,2013-09-08 03:14:00,
2013-09-07 23:19:00,68.9,47.3,29.26,South,181,0.0,0.0,46,0.00,,,0.00,VWS V13.01,2013-09-08 03:19:00,
2013-09-07 23:24:00,68.7,48.3,29.26,South,181,0.0,0.0,48,0.00,,,0.00,VWS V13.01,2013-09-08 03:24:00,
2013-09-07 23:29:00,68.7,48.8,29.26,South,181,0.0,0.0,49,0.00,,,0.00,VWS V13.01,2013-09-08 03:29:00,
2013-09-07 23:34:00,68.7,48.8,29.26,South,181,0.0,0.0,49,0.00,,,0.00,VWS V13.01,2013-09-08 03:34:00,
2013-09-07 23:39:00,68.7,48.3,29.26,South,181,0.0,0.0,48,0.00,,,0.00,VWS V13.01,2013-09-08 03:39:00,
2013-09-07 23:44:00,68.7,48.3,29.26,South,181,0.0,0.0,48,0.00,,,0.00,VWS V13.01,2013-09-08 03:44:00,
2013-09-07 23:49:00,68.5,48.1,29.26,South,181,0.0,0.0,48,0.00,,,0.00,VWS V13.01,2013-09-08 03:49:00,
2013-09-07 23:54:00,68.5,48.1,29.26,South,181,0.0,0.0,48,0.00,,,0.00,VWS V13.01,2013-09-08 03:54:00,
2013-09-07 23:59:00,68.4,47.9,29.26,South,181,0.0,0.0,48,0.00,,,0.00,VWS V13.01,2013-09-08 03:59:00,